KD7DR-3 Weather Reports


Display with metric or nautical units.
time (UTC)temp
F
wind
direction
speed
MPH
gust
MPH
rain 1hr
in
rain 24hr
in
rain mn
in
humidity
%
barometer
mb
20170629102529 57 0 0.0 0.0 0.00 0.00 0.00 44 1013.9
20170629101530 57 0 0.0 0.0 0.00 0.00 0.00 40 1013.9
20170629100529 57 0 0.0 0.0 0.00 0.00 0.00 38 1013.8
20170629095529 58 0 0.0 0.0 0.00 0.00 0.00 34 1013.8
20170629094529 58 0 0.0 0.0 0.00 0.00 0.00 32 1013.9
20170629093529 58 0 0.0 0.0 0.00 0.00 0.00 37 1013.8
20170629092529 58 0 0.0 0.0 0.00 0.00 0.00 43 1013.7
20170629091529 58 0 0.0 0.0 0.00 0.00 0.00 44 1013.7
20170629090529 58 0 0.0 0.0 0.00 0.00 0.00 44 1013.9
20170629085721 59 0 0.0 0.0 0.00 0.00 0.00 42 1013.9
20170629085528 59 0 0.0 0.0 0.00 0.00 0.00 43 1013.9
20170629084529 59 0 0.0 0.0 0.00 0.00 0.00 42 1013.9
20170629083531 59 0 0.0 0.0 0.00 0.00 0.00 44 1014.0
20170629082607 59 0 0.0 0.0 0.00 0.00 0.00 45 1014.1
20170629082528 59 0 0.0 0.0 0.00 0.00 0.00 45 1014.1
20170629081529 59 0 0.0 0.0 0.00 0.00 0.00 46 1014.0
20170629080528 60 0 0.0 0.0 0.00 0.00 0.00 48 1014.1
20170629075529 60 0 0.0 0.0 0.00 0.00 0.00 50 1014.2
20170629074231 60 0 0.0 0.0 0.00 0.00 0.00 49 1014.2
20170629073232 60 0 0.0 0.0 0.00 0.00 0.00 48 1014.1
20170629072231 61 0 0.0 0.0 0.00 0.00 0.00 48 1014.2
20170629071233 62 0 0.0 0.0 0.00 0.00 0.00 47 1014.1
20170629070235 62 0 0.0 0.0 0.00 0.00 0.00 48 1014.2
20170629065231 62 0 0.0 0.0 0.00 0.00 0.00 48 1014.2
20170629064231 62 0 0.0 0.0 0.00 0.00 0.00 47 1014.3
20170629062735 62 0 0.0 0.0 0.00 0.00 0.00 47 1014.3
20170629061735 62 0 0.0 0.0 0.00 0.00 0.00 46 1014.4
20170629060731 62 0 0.0 0.0 0.00 0.00 0.00 46 1014.4
20170629055732 62 0 0.0 0.0 0.00 0.00 0.00 46 1014.3
20170629054731 62 0 0.0 0.0 0.00 0.00 0.00 46 1014.3
20170629053732 63 0 0.0 0.0 0.00 0.00 0.00 45 1014.3
20170629052731 63 0 0.0 0.0 0.00 0.00 0.00 44 1014.4
20170629051734 64 0 0.0 0.0 0.00 0.00 0.00 43 1014.3
20170629051717 74 0 0.0 0.0 0.00 0.00 0.00 39 1017.1
20170629051653 74 0 0.0 0.0 0.00 0.00 0.00 40 1017.0
20170629050733 64 0 0.0 0.0 0.00 0.00 0.00 43 1014.1
20170629045733 64 0 0.0 0.0 0.00 0.00 0.00 43 1014.1
20170629044730 64 0 0.0 0.0 0.00 0.00 0.00 43 1014.0
20170629043730 65 0 0.0 0.0 0.00 0.00 0.00 43 1014.1
20170629042730 65 0 0.0 0.0 0.00 0.00 0.00 43 1014.0
20170629041730 64 0 0.0 0.0 0.00 0.00 0.00 43 1014.0
20170629040730 64 0 0.0 0.0 0.00 0.00 0.00 44 1013.9
20170629035730 64 0 0.0 0.0 0.00 0.00 0.00 44 1013.7
20170629034730 64 0 0.0 0.0 0.00 0.00 0.00 44 1013.8
20170629033730 64 0 0.0 0.0 0.00 0.00 0.00 45 1013.7
20170629032731 64 0 0.0 0.0 0.00 0.00 0.00 45 1013.7
20170629031730 64 0 0.0 0.0 0.00 0.00 0.00 46 1013.7
20170629030730 64 0 0.0 0.0 0.00 0.00 0.00 46 1013.6
20170629025812 64 0 0.0 0.0 0.00 0.00 0.00 46 1013.6
20170629025730 64 0 0.0 0.0 0.00 0.00 0.00 46 1013.6
20170629024730 64 0 0.0 0.0 0.00 0.00 0.00 47 1013.5
20170629023730 65 0 0.0 0.0 0.00 0.00 0.00 47 1013.5
20170629022730 65 0 0.0 0.0 0.00 0.00 0.00 47 1013.5
20170629021730 65 0 0.0 0.0 0.00 0.00 0.00 47 1013.3
20170629020731 66 0 0.0 0.0 0.00 0.00 0.00 46 1013.3
20170629015730 66 0 0.0 0.0 0.00 0.00 0.00 47 1013.4
20170629014731 66 0 0.0 0.0 0.00 0.00 0.00 46 1013.2
20170629013730 66 0 0.0 0.0 0.00 0.00 0.00 45 1013.3
20170629012730 66 0 0.0 0.0 0.00 0.00 0.00 44 1013.3
20170629011730 67 0 0.0 0.0 0.00 0.00 0.00 45 1013.2
20170629010730 67 0 0.0 0.0 0.00 0.00 0.00 45 1013.2
20170629005733 67 0 0.0 0.0 0.00 0.00 0.00 45 1013.2
20170629004730 67 0 0.0 0.0 0.00 0.00 0.00 44 1013.3
20170629003730 67 0 0.0 0.0 0.00 0.00 0.00 44 1013.0
20170629002733 67 0 0.0 0.0 0.00 0.00 0.00 43 1013.0
20170629001730 67 0 0.0 0.0 0.00 0.00 0.00 46 1013.2
20170629000731 68 0 0.0 0.0 0.00 0.00 0.00 47 1013.2
20170628235730 68 0 0.0 0.0 0.00 0.00 0.00 48 1013.3
20170628234730 69 0 0.0 0.0 0.00 0.00 0.00 44 1013.5
20170628233733 69 0 0.0 0.0 0.00 0.00 0.00 46 1013.7
20170628232730 68 0 0.0 0.0 0.00 0.00 0.00 48 1013.8
20170628231730 68 0 0.0 0.0 0.00 0.00 0.00 46 1013.8
20170628230730 68 0 0.0 0.0 0.00 0.00 0.00 43 1014.0
20170628225730 68 0 0.0 0.0 0.00 0.00 0.00 40 1014.0
20170628224730 68 0 0.0 0.0 0.00 0.00 0.00 39 1013.8
20170628223730 68 0 0.0 0.0 0.00 0.00 0.00 45 1014.0
20170628222730 68 0 0.0 0.0 0.00 0.00 0.00 46 1014.2
20170628220730 68 0 0.0 0.0 0.00 0.00 0.00 45 1014.2
20170628215730 67 0 0.0 0.0 0.00 0.00 0.00 48 1014.3
20170628214730 67 0 0.0 0.0 0.00 0.00 0.00 49 1014.5
20170628213730 67 0 0.0 0.0 0.00 0.00 0.00 45 1014.4
20170628212730 67 0 0.0 0.0 0.00 0.00 0.00 49 1014.6
20170628211730 67 0 0.0 0.0 0.00 0.00 0.00 50 1014.5
20170628210731 67 0 0.0 0.0 0.00 0.00 0.00 48 1014.6
20170628205730 66 0 0.0 0.0 0.00 0.00 0.00 52 1014.6
20170628204730 66 0 0.0 0.0 0.00 0.00 0.00 48 1014.7
20170628203731 65 0 0.0 0.0 0.00 0.00 0.00 48 1014.7
20170628202730 66 0 0.0 0.0 0.00 0.00 0.00 48 1014.9
20170628201730 65 0 0.0 0.0 0.00 0.00 0.00 54 1014.9
20170628200731 65 0 0.0 0.0 0.00 0.00 0.00 54 1014.8
20170628195732 65 0 0.0 0.0 0.00 0.00 0.00 57 1014.9
20170628194732 64 0 0.0 0.0 0.00 0.00 0.00 52 1014.9
20170628193733 65 0 0.0 0.0 0.00 0.00 0.00 58 1014.9
20170628192731 63 0 0.0 0.0 0.00 0.00 0.00 56 1015.0
20170628191730 64 0 0.0 0.0 0.00 0.00 0.00 59 1015.0
20170628190730 64 0 0.0 0.0 0.00 0.00 0.00 58 1015.0
20170628185734 64 0 0.0 0.0 0.00 0.00 0.00 57 1015.1
20170628184733 63 0 0.0 0.0 0.00 0.00 0.00 59 1015.1
20170628183029 62 0 0.0 0.0 0.00 0.00 0.00 61 1015.0
20170628182029 62 0 0.0 0.0 0.00 0.00 0.00 62 1015.2
20170628181033 62 0 0.0 0.0 0.00 0.00 0.00 60 1015.1
20170628180029 62 0 0.0 0.0 0.00 0.00 0.00 59 1015.1
20170628175030 61 0 0.0 0.0 0.00 0.00 0.00 59 1015.1
20170628174032 61 0 0.0 0.0 0.00 0.00 0.00 58 1015.0
20170628173029 61 0 0.0 0.0 0.00 0.00 0.00 58 1015.1
20170628172029 61 0 0.0 0.0 0.00 0.00 0.00 58 1015.0
20170628171029 60 0 0.0 0.0 0.00 0.00 0.00 60 1015.1
20170628170030 60 0 0.0 0.0 0.00 0.00 0.00 60 1015.1
20170628165029 60 0 0.0 0.0 0.00 0.00 0.00 60 1015.1
20170628164030 60 0 0.0 0.0 0.00 0.00 0.00 59 1015.0
20170628163031 59 0 0.0 0.0 0.00 0.00 0.00 59 1015.0
20170628162033 59 0 0.0 0.0 0.00 0.00 0.00 61 1015.0
20170628161029 59 0 0.0 0.0 0.00 0.00 0.00 55 1014.9
20170628160029 59 0 0.0 0.0 0.00 0.00 0.00 55 1015.0
20170628155030 58 0 0.0 0.0 0.00 0.00 0.00 53 1015.0
20170628154030 58 0 0.0 0.0 0.00 0.00 0.00 55 1015.1
20170628153029 58 0 0.0 0.0 0.00 0.00 0.00 54 1015.1
20170628152029 57 0 0.0 0.0 0.00 0.00 0.00 56 1015.0
20170628151030 57 0 0.0 0.0 0.00 0.00 0.00 54 1015.0
20170628150029 57 0 0.0 0.0 0.00 0.00 0.00 56 1015.0
20170628145029 57 0 0.0 0.0 0.00 0.00 0.00 57 1014.9
20170628144030 57 0 0.0 0.0 0.00 0.00 0.00 57 1014.9
20170628143029 56 0 0.0 0.0 0.00 0.00 0.00 56 1014.9
20170628142029 57 0 0.0 0.0 0.00 0.00 0.00 52 1014.9
20170628141029 56 0 0.0 0.0 0.00 0.00 0.00 51 1014.8
20170628140031 56 0 0.0 0.0 0.00 0.00 0.00 51 1014.8
20170628135029 58 0 0.0 0.0 0.00 0.00 0.00 48 1014.7
20170628134029 60 0 0.0 0.0 0.00 0.00 0.00 38 1014.6
20170628133030 60 0 0.0 0.0 0.00 0.00 0.00 36 1014.5
20170628132029 61 0 0.0 0.0 0.00 0.00 0.00 33 1014.4
20170628131029 61 0 0.0 0.0 0.00 0.00 0.00 34 1014.3
20170628130030 61 0 0.0 0.0 0.00 0.00 0.00 33 1014.2
20170628125029 60 0 0.0 0.0 0.00 0.00 0.00 35 1014.2
20170628124029 60 0 0.0 0.0 0.00 0.00 0.00 35 1014.1
20170628123029 60 0 0.0 0.0 0.00 0.00 0.00 36 1014.0
20170628122029 60 0 0.0 0.0 0.00 0.00 0.00 36 1014.0
20170628121029 60 0 0.0 0.0 0.00 0.00 0.00 35 1013.9
20170628120029 60 0 0.0 0.0 0.00 0.00 0.00 35 1013.8
20170628115029 60 0 0.0 0.0 0.00 0.00 0.00 38 1013.8
20170628114030 61 0 0.0 0.0 0.00 0.00 0.00 37 1013.7
20170628113029 61 0 0.0 0.0 0.00 0.00 0.00 38 1013.7
20170628112029 60 0 0.0 0.0 0.00 0.00 0.00 41 1013.7
20170628111029 60 0 0.0 0.0 0.00 0.00 0.00 41 1013.6
20170628110029 60 0 0.0 0.0 0.00 0.00 0.00 43 1013.6
20170628105029 60 0 0.0 0.0 0.00 0.00 0.00 45 1013.7
20170628104030 60 0 0.0 0.0 0.00 0.00 0.00 46 1013.7